Find Local Weather

World > North America > United States > Illinois

Stonefort, Illinois Regional Weather

Lat: 37.62N, Lon: 88.71W
Wx Zone: ILZ086
Warning FLW WEATHER ALERT - HARD FROST ADVISORY (More Info. Click Here) Warning
Feedback
Expires:201810180300;;347272
ASUS43 KLOT 180208
RWRIL 

ILLINOIS REGIONAL WEATHER ROUNDUP
NATIONAL WEATHER SERVICE CHICAGO/ROMEOVILLE IL
900 PM CDT WED OCT 17 2018

NOTE: "FAIR" INDICATES FEW OR NO CLOUDS BELOW 12,000 FEET WITH NO
SIGNIFICANT WEATHER AND/OR OBSTRUCTIONS TO VISIBILITY.

* THESE STATIONS ARE NOT UNDER NWS QUALITY CONTROL. THEY ALSO MAY NOT
  REPORT WEATHER SUCH AS PRECIPITATION OR FOG.


ILZ064>066-069>071-074>076-080>082-084>086-088>090-092>094-180300-
SOUTH-CENTRAL ILLINOIS
  
CITY           SKY/WX    TMP DP  RH WIND       PRES   REMARKS
CARBONDALE     FAIR      48  41  76 N3        30.43R                  
CAIRO*         FAIR      46  44  95 CALM      30.44R                  
EFFINGHAM*     FAIR      42  34  74 CALM      30.46R                  
MARION         FAIR      46  40  81 CALM      30.44R                  
MT. VERNON     FAIR      43  40  89 CALM      30.45R                  
CENTRALIA*     CLOUDY    49  36  61 N3        30.44R                  
SALEM*         FAIR      47  35  63 CALM      30.45R                  
METROPOLIS*    FAIR      48  44  85 CALM      30.43R                  
$$


SKY/WX - Weather  TMP - Temperature  DP - Dew Point  RH - Relative Humidity
WIND - Wind Direction/Speed PRES - Barometric Pressure
Opt in/Opt out of Taboola Video Ads